| time (UTC) | temp F | wind direction | speed MPH | gust MPH | rain 1hr in | rain 24hr in | rain mn in | humidity % | barometer mb |
| 20260901184325 | 67 | 0 | 0.0 | 0.0 | 0.00 | 0.00 | 0.00 | 76 | 1021.3 |
| 20260901183325 | 67 | 41 | 0.0 | 2.0 | 0.00 | 0.00 | 0.00 | 75 | 1021.1 |
| 20260901182325 | 68 | 52 | 2.0 | 4.0 | 0.00 | 0.00 | 0.00 | 74 | 1020.9 |
| 20260901181324 | 69 | 41 | 3.0 | 5.0 | 0.00 | 0.00 | 0.00 | 72 | 1020.8 |
| 20260901180324 | 69 | 34 | 3.0 | 5.0 | 0.00 | 0.00 | 0.00 | 71 | 1020.8 |
| 20260901175323 | 70 | 48 | 3.0 | 4.0 | 0.00 | 0.00 | 0.00 | 70 | 1020.8 |
| 20260901174323 | 71 | 63 | 3.0 | 4.0 | 0.00 | 0.00 | 0.00 | 68 | 1020.6 |
| 20260901172323 | 75 | 52 | 1.0 | 2.0 | 0.00 | 0.00 | 0.00 | 63 | 1020.7 |
| 20260901171322 | 76 | 45 | 1.0 | 3.0 | 0.00 | 0.00 | 0.00 | 61 | 1020.6 |
| 20260901170322 | 77 | 336 | 1.0 | 4.0 | 0.00 | 0.00 | 0.00 | 59 | 1020.6 |
| 20260901165322 | 77 | 328 | 1.0 | 4.0 | 0.00 | 0.00 | 0.00 | 58 | 1020.6 |
| 20260901164321 | 77 | 343 | 2.0 | 5.0 | 0.00 | 0.00 | 0.00 | 55 | 1020.6 |
| 20260901163321 | 78 | 332 | 2.0 | 4.0 | 0.00 | 0.00 | 0.00 | 51 | 1020.5 |
| 20260901162320 | 77 | 336 | 3.0 | 7.0 | 0.00 | 0.00 | 0.00 | 55 | 1020.6 |
| 20260901161320 | 78 | 288 | 2.0 | 5.0 | 0.00 | 0.00 | 0.00 | 53 | 1020.6 |
| 20260901160320 | 80 | 288 | 1.0 | 4.0 | 0.00 | 0.00 | 0.00 | 51 | 1020.6 |
| 20260901155319 | 81 | 208 | 0.0 | 2.0 | 0.00 | 0.00 | 0.00 | 49 | 1020.7 |
| 20260901154319 | 80 | 198 | 0.0 | 1.0 | 0.00 | 0.00 | 0.00 | 49 | 1020.7 |
| 20260901153319 | 80 | 225 | 2.0 | 10.0 | 0.00 | 0.00 | 0.00 | 51 | 1020.8 |
| 20260901152318 | 80 | 288 | 1.0 | 6.0 | 0.00 | 0.00 | 0.00 | 49 | 1020.7 |
| 20260901151318 | 79 | 158 | 1.0 | 3.0 | 0.00 | 0.00 | 0.00 | 52 | 1020.8 |
| 20260901150318 | 78 | 203 | 3.0 | 8.0 | 0.00 | 0.00 | 0.00 | 52 | 1020.9 |
| 20260901145317 | 80 | 224 | 2.0 | 4.0 | 0.00 | 0.00 | 0.00 | 51 | 1020.8 |
| 20260901144317 | 80 | 288 | 1.0 | 6.0 | 0.00 | 0.00 | 0.00 | 51 | 1020.8 |
| 20260901143316 | 80 | 288 | 2.0 | 7.0 | 0.00 | 0.00 | 0.00 | 51 | 1020.9 |
| 20260901142316 | 81 | 340 | 1.0 | 4.0 | 0.00 | 0.00 | 0.00 | 48 | 1020.9 |
| 20260901141316 | 81 | 240 | 1.0 | 6.0 | 0.00 | 0.00 | 0.00 | 49 | 1020.9 |
| 20260901135315 | 79 | 288 | 1.0 | 7.0 | 0.00 | 0.00 | 0.00 | 52 | 1021.2 |
| 20260901134315 | 77 | 218 | 4.0 | 8.0 | 0.00 | 0.00 | 0.00 | 57 | 1021.3 |
| 20260901133314 | 78 | 203 | 4.0 | 11.0 | 0.00 | 0.00 | 0.00 | 55 | 1021.4 |
| 20260901131314 | 79 | 288 | 1.0 | 8.0 | 0.00 | 0.00 | 0.00 | 54 | 1021.6 |
| 20260901130313 | 77 | 201 | 3.0 | 9.0 | 0.00 | 0.00 | 0.00 | 57 | 1021.8 |
| 20260901125313 | 77 | 288 | 3.0 | 9.0 | 0.00 | 0.00 | 0.00 | 57 | 1021.9 |
| 20260901123312 | 77 | 243 | 2.0 | 9.0 | 0.00 | 0.00 | 0.00 | 56 | 1022.0 |
| 20260901121311 | 78 | 273 | 1.0 | 4.0 | 0.00 | 0.00 | 0.00 | 57 | 1021.9 |
| 20260901120311 | 78 | 226 | 2.0 | 5.0 | 0.00 | 0.00 | 0.00 | 55 | 1022.1 |
| 20260901115311 | 80 | 329 | 2.0 | 6.0 | 0.00 | 0.00 | 0.00 | 54 | 1022.2 |
| 20260901114310 | 78 | 214 | 1.0 | 6.0 | 0.00 | 0.00 | 0.00 | 56 | 1022.3 |
| 20260901111309 | 73 | 210 | 1.0 | 3.0 | 0.00 | 0.00 | 0.00 | 65 | 1022.4 |
| 20260901110309 | 74 | 288 | 1.0 | 8.0 | 0.00 | 0.00 | 0.00 | 63 | 1022.5 |
| 20260901103308 | 72 | 225 | 1.0 | 4.0 | 0.00 | 0.00 | 0.00 | 66 | 1022.4 |
| 20260901102307 | 71 | 211 | 4.0 | 7.0 | 0.00 | 0.00 | 0.00 | 68 | 1022.6 |
| 20260901101307 | 72 | 229 | 3.0 | 9.0 | 0.00 | 0.00 | 0.00 | 67 | 1022.6 |
| 20260901100306 | 74 | 200 | 4.0 | 10.0 | 0.00 | 0.00 | 0.00 | 65 | 1022.7 |
| 20260901095306 | 73 | 207 | 1.0 | 9.0 | 0.00 | 0.00 | 0.00 | 64 | 1022.6 |
| 20260901094306 | 73 | 203 | 3.0 | 10.0 | 0.00 | 0.00 | 0.00 | 66 | 1022.6 |
| 20260901093306 | 71 | 180 | 6.0 | 13.0 | 0.00 | 0.00 | 0.00 | 64 | 1022.6 |
| 20260901092306 | 72 | 187 | 4.0 | 10.0 | 0.00 | 0.00 | 0.00 | 65 | 1022.6 |
| 20260901091305 | 72 | 215 | 2.0 | 8.0 | 0.00 | 0.00 | 0.00 | 65 | 1022.7 |
| 20260901090304 | 71 | 288 | 3.0 | 13.0 | 0.00 | 0.00 | 0.00 | 69 | 1022.8 |
| 20260901083303 | 70 | 288 | 4.0 | 10.0 | 0.00 | 0.00 | 0.00 | 70 | 1022.6 |
| 20260901082306 | 72 | 217 | 1.0 | 7.0 | 0.00 | 0.00 | 0.00 | 67 | 1022.6 |
| 20260901080302 | 71 | 288 | 2.0 | 10.0 | 0.00 | 0.00 | 0.00 | 71 | 1022.6 |
| 20260901075302 | 71 | 288 | 3.0 | 10.0 | 0.00 | 0.00 | 0.00 | 74 | 1022.6 |
| 20260901074301 | 71 | 190 | 4.0 | 10.0 | 0.00 | 0.00 | 0.00 | 71 | 1022.5 |
| 20260901072301 | 72 | 210 | 3.0 | 7.0 | 0.00 | 0.00 | 0.00 | 74 | 1022.5 |
| 20260901070300 | 72 | 186 | 1.0 | 5.0 | 0.00 | 0.00 | 0.00 | 73 | 1022.4 |
| 20260901065259 | 72 | 193 | 2.0 | 7.0 | 0.00 | 0.00 | 0.00 | 72 | 1022.4 |
| 20260901064259 | 71 | 219 | 1.0 | 4.0 | 0.00 | 0.00 | 0.00 | 71 | 1022.3 |
| 20260901063259 | 70 | 136 | 1.0 | 3.0 | 0.00 | 0.00 | 0.00 | 72 | 1022.2 |
| 20260901062259 | 68 | 150 | 1.0 | 2.0 | 0.00 | 0.00 | 0.00 | 76 | 1022.2 |
| 20260901061258 | 67 | 114 | 1.0 | 3.0 | 0.00 | 0.00 | 0.00 | 78 | 1022.2 |
| 20260901055257 | 62 | 0 | 0.0 | 0.0 | 0.00 | 0.00 | 0.00 | 91 | 1022.0 |
| 20260901054257 | 62 | 0 | 0.0 | 0.0 | 0.00 | 0.00 | 0.00 | 89 | 1022.0 |
| 20260901053257 | 63 | 167 | 0.0 | 2.0 | 0.00 | 0.00 | 0.00 | 87 | 1022.1 |
| 20260901052256 | 63 | 218 | 1.0 | 2.0 | 0.00 | 0.00 | 0.00 | 87 | 1022.1 |
| 20260901051256 | 63 | 159 | 1.0 | 3.0 | 0.00 | 0.00 | 0.00 | 84 | 1021.9 |
| 20260901050256 | 63 | 143 | 1.0 | 3.0 | 0.00 | 0.00 | 0.00 | 84 | 1021.7 |
| 20260901045255 | 63 | 145 | 3.0 | 8.0 | 0.00 | 0.00 | 0.00 | 83 | 1021.8 |
| 20260901044255 | 63 | 172 | 2.0 | 4.0 | 0.00 | 0.00 | 0.00 | 83 | 1021.8 |
| 20260901043254 | 64 | 153 | 2.0 | 5.0 | 0.00 | 0.00 | 0.00 | 82 | 1021.9 |
| 20260901041254 | 64 | 172 | 2.0 | 6.0 | 0.00 | 0.00 | 0.00 | 82 | 1022.0 |
| 20260901040254 | 64 | 141 | 2.0 | 6.0 | 0.00 | 0.00 | 0.00 | 83 | 1022.1 |
| 20260901035253 | 63 | 174 | 1.0 | 4.0 | 0.00 | 0.00 | 0.00 | 85 | 1022.1 |
| 20260901034253 | 63 | 155 | 1.0 | 3.0 | 0.00 | 0.00 | 0.00 | 85 | 1022.1 |
| 20260901033252 | 63 | 152 | 1.0 | 3.0 | 0.00 | 0.00 | 0.00 | 85 | 1022.1 |
| 20260901031251 | 63 | 138 | 2.0 | 6.0 | 0.00 | 0.00 | 0.00 | 85 | 1022.2 |
| 20260901030251 | 63 | 148 | 1.0 | 4.0 | 0.00 | 0.00 | 0.00 | 86 | 1022.3 |
| 20260901025251 | 63 | 118 | 3.0 | 5.0 | 0.00 | 0.00 | 0.00 | 85 | 1022.4 |
| 20260901024250 | 63 | 149 | 3.0 | 6.0 | 0.00 | 0.00 | 0.00 | 85 | 1022.4 |
| 20260901023250 | 63 | 132 | 2.0 | 8.0 | 0.00 | 0.00 | 0.00 | 86 | 1022.3 |
| 20260901022250 | 63 | 139 | 1.0 | 5.0 | 0.00 | 0.00 | 0.00 | 86 | 1022.3 |
| 20260901021249 | 62 | 165 | 3.0 | 8.0 | 0.00 | 0.00 | 0.00 | 87 | 1022.2 |
| 20260901015248 | 62 | 195 | 0.0 | 2.0 | 0.00 | 0.00 | 0.00 | 90 | 1022.2 |
| 20260901014248 | 62 | 214 | 0.0 | 3.0 | 0.00 | 0.00 | 0.00 | 89 | 1022.3 |
| 20260901013248 | 62 | 150 | 1.0 | 5.0 | 0.00 | 0.00 | 0.00 | 88 | 1022.3 |
| 20260901012247 | 62 | 0 | 0.0 | 0.0 | 0.00 | 0.00 | 0.00 | 87 | 1022.2 |
| 20260901010247 | 63 | 139 | 1.0 | 4.0 | 0.00 | 0.00 | 0.00 | 85 | 1022.0 |
| 20260901005247 | 63 | 0 | 0.0 | 0.0 | 0.00 | 0.00 | 0.00 | 86 | 1021.9 |
| 20260901003246 | 63 | 108 | 0.0 | 2.0 | 0.00 | 0.00 | 0.00 | 86 | 1021.8 |
| 20260901002245 | 64 | 191 | 1.0 | 3.0 | 0.00 | 0.00 | 0.00 | 85 | 1021.7 |
| 20260901001245 | 64 | 158 | 0.0 | 3.0 | 0.00 | 0.00 | 0.00 | 84 | 1021.6 |
| 20260901000245 | 64 | 0 | 0.0 | 0.0 | 0.00 | 0.00 | 0.00 | 84 | 1021.6 |
| 20260831234244 | 64 | 288 | 1.0 | 3.0 | 0.00 | 0.00 | 0.00 | 84 | 1021.3 |
| 20260831233244 | 65 | 0 | 0.0 | 0.0 | 0.00 | 0.00 | 0.00 | 84 | 1021.3 |
| 20260831232243 | 64 | 38 | 2.0 | 3.0 | 0.00 | 0.00 | 0.00 | 85 | 1021.1 |
| 20260831230242 | 65 | 0 | 0.0 | 0.0 | 0.00 | 0.00 | 0.06 | 86 | 1021.0 |
| 20260831225242 | 65 | 18 | 0.0 | 0.0 | 0.00 | 0.00 | 0.06 | 82 | 1021.0 |
| 20260831224242 | 65 | 41 | 4.0 | 5.0 | 0.00 | 0.00 | 0.06 | 82 | 1020.9 |
| 20260831223241 | 65 | 0 | 0.0 | 0.0 | 0.00 | 0.00 | 0.06 | 82 | 1020.8 |
| 20260831222241 | 66 | 0 | 0.0 | 0.0 | 0.00 | 0.00 | 0.06 | 83 | 1020.8 |
| 20260831221241 | 66 | 0 | 0.0 | 0.0 | 0.00 | 0.00 | 0.06 | 81 | 1020.8 |
| 20260831215240 | 66 | 155 | 3.0 | 9.0 | 0.00 | 0.00 | 0.06 | 80 | 1020.2 |
| 20260831214239 | 67 | 165 | 2.0 | 6.0 | 0.00 | 0.00 | 0.06 | 80 | 1020.1 |
| 20260831213239 | 67 | 156 | 3.0 | 6.0 | 0.00 | 0.00 | 0.06 | 79 | 1020.0 |
| 20260831212239 | 67 | 136 | 4.0 | 7.0 | 0.00 | 0.00 | 0.06 | 79 | 1019.9 |
| 20260831211239 | 67 | 143 | 3.0 | 7.0 | 0.00 | 0.00 | 0.06 | 79 | 1019.9 |
| 20260831210238 | 67 | 201 | 2.0 | 5.0 | 0.00 | 0.00 | 0.06 | 78 | 1019.8 |
| 20260831204238 | 68 | 225 | 3.0 | 10.0 | 0.00 | 0.00 | 0.06 | 75 | 1019.5 |
| 20260831203237 | 69 | 191 | 2.0 | 6.0 | 0.00 | 0.00 | 0.06 | 73 | 1019.5 |
| 20260831202237 | 69 | 194 | 3.0 | 8.0 | 0.00 | 0.00 | 0.06 | 72 | 1019.5 |
| 20260831201236 | 69 | 181 | 3.0 | 6.0 | 0.00 | 0.00 | 0.06 | 72 | 1019.4 |
| 20260831195235 | 69 | 136 | 4.0 | 7.0 | 0.00 | 0.00 | 0.06 | 72 | 1019.4 |
| 20260831194235 | 69 | 152 | 5.0 | 9.0 | 0.00 | 0.00 | 0.06 | 72 | 1019.4 |
| 20260831191233 | 70 | 176 | 4.0 | 8.0 | 0.00 | 0.00 | 0.06 | 73 | 1018.9 |
| 20260831190233 | 70 | 179 | 2.0 | 4.0 | 0.00 | 0.00 | 0.06 | 72 | 1018.7 |
| 20260831185233 | 70 | 165 | 3.0 | 9.0 | 0.00 | 0.00 | 0.06 | 71 | 1018.6 |